TOMORROW-S7

Satellite information

Favourite Embed

Satellite Type and Status

PAYLOADIN ORBIT

Key statistics

Satellite TOMORROW-S7 at a glance.

Uptime

149

Days in orbit

Revolutions

≈ 15.0

Per day

Orbit

LEO

Low Earth Orbit

Inclination

45.4

Latest

Satellite identification and parameters

Extended collection of information and parameters for TOMORROW-S7.

Object identification

Identified? True

Debris? False

Object name: TOMORROW-S7

International designator: 2025-081B

Object number (NORAD): 63631

Object ID (CCSDS): 63631

Country: UNITED STATES OF AMERICA (US)

Current information (Y/N): Y

RCS size: MEDIUM

Orbital parameters

Period: 96.117 minutes

Inclination: 45.3946 deg

SMA: 6950.699 km

Apoapsis: 575.037 km

Periapsis: 570.091 km

RAAN: 309.8316 deg

Eccentricy: 0.00035578

Argument of periapsis: 260.2487 deg

Mean anomaly: 99.7989 deg

Mean motion: 14.98166447 rev/day

Mean motion (dot): 0.00001419 rev/day2

B* drag term: 0.0001367129 1/REarth

Two-line elements (TLE)

Creation date: Sept. 18, 2025, 3:57 a.m.

Reference frame: TEME

Reference center: EARTH

Epoch: Sept. 17, 2025, 2:34 p.m. UTC

TLE line 0: 0 TOMORROW-S7

TLE line 1: 1 63631U 25081B 25260.60724549 .00001419 00000-0 13671-3 0 9993

TLE line 2: 2 63631 45.3946 309.8316 0003558 260.2487 99.7989 14.98166447 22276

Live tracking on map

Real-time ground track for satellite TOMORROW-S7.

In-orbit conjunctions

There are no conjunctions computed for TOMORROW-S7, at the moment. Check back to stay up to date, as we update our databases every day.

Go to all conjunctions

Associated space launch

Dedicated rideshare flight to a mid-inclination orbit with dozens of small microsatellites and nanosatellites for commercial and government customers.

TOMORROW-S7 was lifted into orbit during the mission ‘Falcon 9 Block 5 | Bandwagon 3 (Dedicated Mid-Inclination Rideshare)’, on board a Falcon 9 space rocket.

The launch took place on April 22, 2025, 12:48 a.m. from Space Launch Complex 40.

For more information about the launch, click the button.

Launch to space Falcon 9 Block 5 | Bandwagon 3 (Dedicated Mid-Inclination Rideshare)
Falcon 9 Block 5 | Bandwagon 3 (Dedicated Mid-Inclination Rideshare)

Agency: SpaceX

Status: Launch Successful

Launch date: April 22, 2025, 12:48 a.m. UTC

Rocket: Falcon 9

Launch pad: Space Launch Complex 40

Location: Cape Canaveral SFS, FL, USA

...

Latest news about this satellite

News about space launch
SpaceX Launches Sparse Bandwagon-3 Mission with Just Three Payloads

SpaceX Launches Sparse Bandwagon-3 Mission with Just Three Payloads

News about space launch
ATMOS PHOENIX 1 Reaches Orbit; Conducts Critical Inflatable ReEntry Test

ATMOS PHOENIX 1 Reaches Orbit; Conducts Critical Inflatable ReEntry Test

News about space launch
Atmos Space Cargo declares first test flight a success despite reentry uncertainty

German startup Atmos Space Cargo says it considers the first flight of its reentry vehicle a success despite limited data on how it performed during reentry. The post Atmos Space Cargo declares first test flight a success despite reentry uncertainty appe...


Newsletter sign-up

Weekly statistics, charts and insights to help you stay on top of the space industry.